User: anonymous   Login
Location: Janeiro
(34.9957°N, 76.7652°W)
Time: 13:35:59
(UTC+00:00)
Language:

Cosmos 1850 Rocket - Orbit

View from above orbital plane
View from above orbital plane
View from above satellite
View from above satellite

Ground track
Ground track

The orbit data is extracted from the following two-line orbital elements,

1 18096U 87049B   20056.69101039 -.00000067  00000-0 -13875-4 0  9997
2 18096  74.0401 219.5084 0021329 151.7492 208.4823 14.36529950713212
Epoch (UTC): 25 February 2020 16:35:03
Eccentricity: 0.0021329
inclination: 74.0401°
perigee height: 755 km
apogee height: 785 km
right ascension of ascending node: 219.5084°
argument of perigee: 151.7492°
revolutions per day: 14.36529950
mean anomaly at epoch: 208.4823°
orbit number at epoch: 71321

The dashed part of the orbit path shows where the satellite is in the earth's shadow,  

DLR